User: anonymous   Login
Location: Bonnesvalyn
(49.1218°N, 3.3177°E)
Time: 21:19:55
(UTC+00:00)
Language:

deb S5M - Orbit

View from above orbital plane
View from above orbital plane
View from above satellite
View from above satellite

Ground track
Ground track

The orbit data is extracted from the following two-line orbital elements,

1 25204U 87068AF  24051.71842895  .00003963  00000-0  26769-2 0  9991
2 25204  82.4302 147.2488 0118312 128.0561 358.4124 13.96835018311902
Epoch (UTC): 20 February 2024 17:14:32
Eccentricity: 0.0118312
inclination: 82.4302°
perigee height: 818 km
apogee height: 991 km
right ascension of ascending node: 147.2488°
argument of perigee: 128.0561°
revolutions per day: 13.96835018
mean anomaly at epoch: 358.4124°
orbit number at epoch: 31190

The dashed part of the orbit path shows where the satellite is in the earth's shadow,  

DLR